Grand Junction, CO

10:59 AM MDT on September 15, 2019 (GMT -0600)
Walker

Weather History for KGJT - April, 2019

Change the Weather History Date:

Monday, April 22, 2019

  Actual Average Record
Temperature  
Mean Temperature 56 °F -  
Max Temperature 72 °F - 85 °F (1969)
Min Temperature 39 °F - 26 °F (1978)
Degree Days  
Heating Degree Days 9    
Month to date heating degree days 249  
Growing Degree Days 6 (Base 50)    
Moisture  
Dew Point 36 °F    
Average Humidity 55    
Maximum Humidity 92    
Minimum Humidity 17    
Precipitation  
Precipitation 0.00 in - 0.55 in (2004)
Month to date precipitation 0.38  
Year to date precipitation 4.11  
Snow  
Snow 0.00 in - - ()
Month to date snowfall T  
Snow Depth 0.00 in    
Sea Level Pressure  
Sea Level Pressure 29.90 in    
Wind  
Wind Speed 6 mph (North)    
Max Wind Speed 22 mph    
Max Gust Speed 29 mph    
Visibility 10 miles    
Events      
T = Trace of Precipitation, MM = Missing Value Source: NWS Daily Summary

Daily Weather History Graph

Daily Weather History Graph

Search for Another Location

Airport or City:

Astronomy

Apr. 22, 2019 Rise Set
Actual Time 6:27 AM MDT 7:58 PM MDT
Civil Twilight 5:59 AM MDT 8:26 PM MDT
Nautical Twilight 5:25 AM MDT 9:00 PM MDT
Astronomical Twilight 4:50 AM MDT 9:36 PM MDT
Moon 11:43 PM MDT (4/22) 8:52 AM MDT (4/22)
Length of Visible Light 14h 26m
Length of Day
13h 30m
Waning Gibbous, 87% of the Moon is Illuminated
Apr 22
Waning Gibbous
Apr 26
Last Quarter
May 4
New
May 11
First Quarter
May 18
Full

Hourly Weather History & Observations

Time (MDT) Temp. Windchill Dew Point Humidity Pressure Visibility Wind Dir Wind Speed Gust Speed Precip Events Conditions
12:53 AM 48.0 °F - 39.0 °F 71% 29.85 in 10.0 mi Calm Calm - N/A   Clear
1:53 AM 46.0 °F - 39.0 °F 76% 29.86 in 10.0 mi Calm Calm - N/A   Clear
2:53 AM 46.9 °F - 37.9 °F 71% 29.91 in 10.0 mi NNW 4.6 mph - N/A   Partly Cloudy
3:53 AM 46.0 °F 43.9 °F 37.9 °F 73% 29.91 in 10.0 mi ESE 4.6 mph - N/A   Partly Cloudy
4:53 AM 45.0 °F 43.5 °F 37.0 °F 74% 29.89 in 10.0 mi East 3.5 mph - N/A   Clear
5:53 AM 39.9 °F - 37.0 °F 89% 29.91 in 10.0 mi Calm Calm - N/A   Clear
6:53 AM 39.0 °F 36.8 °F 36.0 °F 89% 29.94 in 10.0 mi East 3.5 mph - N/A   Clear
7:53 AM 46.9 °F - 39.0 °F 74% 29.96 in 10.0 mi South 3.5 mph - N/A   Clear
8:53 AM 53.1 °F - 41.0 °F 64% 29.94 in 10.0 mi SSW 4.6 mph - N/A   Clear
9:53 AM 59.0 °F - 39.9 °F 49% 29.93 in 10.0 mi Calm Calm - N/A   Clear
10:53 AM 62.1 °F - 37.9 °F 41% 29.93 in 10.0 mi East 3.5 mph - N/A   Partly Cloudy
11:53 AM 64.0 °F - 37.9 °F 38% 29.92 in 10.0 mi North - - N/A   Clear
11:56 AM 64.0 °F - 37.9 °F 38% 30.04 in 10.0 mi Calm Calm - N/A   Clear
12:53 PM 63.0 °F - 37.0 °F 38% 29.91 in 10.0 mi WSW 4.6 mph - N/A   Clear
1:53 PM 64.9 °F - 37.9 °F 37% 29.90 in 10.0 mi NW 4.6 mph - N/A   Clear
2:53 PM 66.0 °F - 35.1 °F 32% 29.88 in 10.0 mi NW 10.4 mph - N/A   Clear
3:53 PM 69.1 °F - 32.0 °F 25% 29.85 in 10.0 mi NNW 8.1 mph - N/A   Clear
4:53 PM 71.1 °F - 25.0 °F 18% 29.84 in 10.0 mi WNW 9.2 mph - N/A   Clear
5:53 PM 66.9 °F - 32.0 °F 27% 29.86 in 10.0 mi NW 17.3 mph - N/A   Clear
6:53 PM 66.0 °F - 34.0 °F 30% 29.88 in 10.0 mi North 6.9 mph - N/A   Scattered Clouds
7:53 PM 64.0 °F - 36.0 °F 35% 29.87 in 10.0 mi NNE 9.2 mph - N/A   Scattered Clouds
8:53 PM 63.0 °F - 36.0 °F 37% 29.88 in 10.0 mi Variable 3.5 mph - N/A   Mostly Cloudy
9:53 PM 61.0 °F - 34.0 °F 36% 29.89 in 10.0 mi ENE 15.0 mph 24.2 mph N/A   Partly Cloudy
10:53 PM 59.0 °F - 35.1 °F 41% 29.92 in 10.0 mi WNW 5.8 mph - N/A   Partly Cloudy
11:53 PM 57.0 °F - 35.1 °F 44% 29.93 in 10.0 mi NNE 12.7 mph 17.3 mph N/A   Mostly Cloudy